Location: Ariel
(45.9570°N, 122.5700°W)
Time: 13:18:10
(UTC-07:00)

Vanguard 3 - Pass Details

Date: 27 August 2019
Orbit: 508 x 3262 km, 33.3° (Epoch: 23 October)

Event Time Altitude Azimuth Distance (km) Brightness Sun altitude
Rises 13:43:43 0° 196° (SSW) 6,710 12.4 53.3°
Reaches altitude 10° 13:52:04 10° 175° (S) 5,099 12.0 53.0°
Maximum altitude 13:57:31 13° 152° (SSE) 4,341 11.4 52.7°
Drops below altitude 10° 14:02:04 10° 128° (SE) 4,132 11.0 52.4°
Sets 14:07:12 0° 103° (ESE) 4,532 10.9 52.1°
